Location: Unspecified
(43.4680°N, 87.1740°E)
Time: 14:20:38
(UTC+00:00)

Cosmos 1356 Rocket - Pass Details

Date: 07 August 2021
Orbit: 543 x 597 km, 81.2° (Epoch: 19 September)

Event Time Altitude Azimuth Distance (km) Brightness Sun altitude
Exits shadow 18:49:40 27° 32° (NNE) 1,063 5.3 -29.9°
Drops below altitude 10° 18:51:40 10° 20° (NNE) 1,820 6.9 -29.8°
Sets 18:53:53 0° 15° (NNE) 2,721 8.1 -29.7°
